Location: ???????
(55.4362°N, 38.1183°E)
Time: 13:57:23
(UTC+00:00)

Lacrosse 5 rocket - Visible Passes

Search period start: 22 October 2021 00:00
Search period end: 01 November 2021 00:00
Orbit: 464 x 629 km, 57.0° (Epoch: 21 October)

Date Brightness Start Highest point End Pass type
(mag) Time Alt. Az. Time Alt. Az. Time Alt. Az.
22 Oct 4.1 00:16:30 15° ESE 00:16:30 15° ESE 00:17:47 10° E visible
22 Oct 1.7 01:52:06 43° SSW 01:53:15 60° SSE 01:57:40 10° ENE visible
22 Oct 1.6 03:28:05 10° W 03:32:27 74° N 03:37:00 10° E visible
23 Oct 4.2 00:10:36 15° E 00:10:36 15° E 00:11:41 10° E visible
23 Oct 1.5 01:46:12 56° SSW 01:46:55 69° SSE 01:51:22 10° ENE visible
23 Oct 1.6 03:21:48 10° W 03:26:09 72° N 03:30:42 10° E visible
24 Oct 4.3 00:04:39 14° E 00:04:39 14° E 00:05:30 10° E visible
24 Oct 1.3 01:40:16 72° SSW 01:40:35 77° SSE 01:45:03 10° ENE visible
24 Oct 1.6 03:15:52 12° W 03:19:52 71° N 03:24:26 10° E visible
24 Oct 4.4 23:58:41 13° E 23:58:41 13° E 23:59:18 10° ENE visible
25 Oct 1.3 01:34:17 85° SE 01:34:17 85° SE 01:38:44 10° ENE visible
25 Oct 1.6 03:09:53 14° W 03:13:35 71° N 03:18:08 10° E visible
25 Oct 4.5 23:52:40 12° ENE 23:52:40 12° ENE 23:53:03 10° ENE visible
26 Oct 1.5 01:28:16 76° ENE 01:28:16 76° ENE 01:32:26 10° ENE visible
26 Oct 1.6 03:03:52 16° WNW 03:07:18 73° N 03:11:51 10° E visible
26 Oct 4.6 23:46:39 11° ENE 23:46:39 11° ENE 23:46:46 10° ENE visible
27 Oct 1.8 01:22:15 64° ENE 01:22:15 64° ENE 01:26:07 10° ENE visible
27 Oct 1.6 02:57:51 19° WNW 03:01:00 75° N 03:05:33 10° E visible
28 Oct 2.1 01:16:13 55° ENE 01:16:13 55° ENE 01:19:48 10° ENE visible
28 Oct 1.5 02:51:49 21° WNW 02:54:42 78° NNE 02:59:16 10° E visible
29 Oct 2.4 01:10:12 47° ENE 01:10:12 47° ENE 01:13:30 10° ENE visible
29 Oct 1.5 02:45:47 24° WNW 02:48:24 83° NNE 02:52:57 10° ESE visible
30 Oct 2.7 01:04:10 41° ENE 01:04:10 41° ENE 01:07:11 10° E visible
30 Oct 1.5 02:39:46 28° WNW 02:42:04 89° NNE 02:46:38 10° ESE visible
31 Oct 3.0 00:58:10 35° ENE 00:58:10 35° ENE 01:00:53 10° E visible
31 Oct 1.4 02:33:46 33° WNW 02:35:44 84° SSW 02:40:18 10° ESE visible
